| time (UTC) | temp F | wind direction | speed knots | gust knots | rain 1hr in | rain 24hr in | rain mn in | humidity % | barometer mb |
| 20260507151526 | 60 | 251 | 0.9 | 3.5 | 0.00 | 0.00 | 0.00 | 90 | 1017.4 |
| 20260507150026 | 59 | 285 | 0.0 | 0.0 | 0.00 | 0.00 | 0.00 | 91 | 1017.3 |
| 20260507144519 | 58 | 309 | 0.0 | 0.9 | 0.00 | 0.00 | 0.00 | 92 | 1017.3 |
| 20260507143023 | 58 | 350 | 0.0 | 0.0 | 0.00 | 0.00 | 0.00 | 93 | 1017.3 |
| 20260507141527 | 57 | 350 | 0.0 | 0.0 | 0.00 | 0.00 | 0.00 | 94 | 1017.1 |
| 20260507140004 | 56 | 350 | 0.0 | 0.0 | 0.00 | 0.00 | 0.00 | 94 | 1016.8 |
| 20260507134503 | 56 | 350 | 0.0 | 0.0 | 0.00 | 0.00 | 0.00 | 93 | 1016.8 |
| 20260507133003 | 56 | 350 | 0.0 | 0.0 | 0.00 | 0.00 | 0.00 | 93 | 1016.7 |
| 20260507131504 | 55 | 350 | 0.0 | 0.0 | 0.00 | 0.00 | 0.00 | 93 | 1016.8 |
| 20260507130005 | 55 | 350 | 0.0 | 0.0 | 0.00 | 0.00 | 0.00 | 93 | 1016.7 |
| 20260507124511 | 55 | 350 | 0.0 | 0.0 | 0.00 | 0.00 | 0.00 | 92 | 1016.6 |
| 20260507123004 | 56 | 350 | 0.0 | 0.0 | 0.00 | 0.00 | 0.00 | 92 | 1016.4 |
| 20260507121504 | 56 | 350 | 0.0 | 0.0 | 0.00 | 0.00 | 0.00 | 92 | 1016.4 |
| 20260507120005 | 56 | 350 | 0.0 | 0.0 | 0.00 | 0.00 | 0.00 | 91 | 1016.4 |
| 20260507114507 | 56 | 350 | 0.0 | 0.0 | 0.00 | 0.00 | 0.00 | 91 | 1016.4 |
| 20260507113005 | 57 | 350 | 0.0 | 0.0 | 0.00 | 0.00 | 0.00 | 91 | 1016.4 |
| 20260507111506 | 57 | 350 | 0.0 | 0.0 | 0.00 | 0.00 | 0.00 | 92 | 1016.5 |
| 20260507110010 | 57 | 350 | 0.0 | 0.0 | 0.00 | 0.00 | 0.00 | 92 | 1016.6 |
| 20260507104504 | 56 | 350 | 0.0 | 0.0 | 0.00 | 0.00 | 0.00 | 92 | 1016.7 |
| 20260507103008 | 57 | 350 | 0.0 | 0.0 | 0.00 | 0.00 | 0.00 | 92 | 1016.9 |
| 20260507101510 | 57 | 350 | 0.0 | 0.0 | 0.00 | 0.00 | 0.00 | 92 | 1017.0 |
| 20260507100005 | 57 | 350 | 0.0 | 0.0 | 0.00 | 0.00 | 0.00 | 92 | 1016.8 |
| 20260507094507 | 57 | 350 | 0.0 | 0.0 | 0.00 | 0.00 | 0.00 | 91 | 1017.0 |
| 20260507093007 | 57 | 350 | 0.0 | 0.0 | 0.00 | 0.00 | 0.00 | 91 | 1017.2 |
| 20260507091521 | 57 | 350 | 0.0 | 0.0 | 0.00 | 0.00 | 0.00 | 92 | 1017.3 |
| 20260507090008 | 57 | 350 | 0.0 | 0.0 | 0.00 | 0.00 | 0.00 | 91 | 1017.4 |
| 20260507084503 | 57 | 350 | 0.0 | 0.0 | 0.00 | 0.00 | 0.00 | 91 | 1017.7 |
| 20260507083006 | 57 | 350 | 0.0 | 0.0 | 0.00 | 0.00 | 0.00 | 90 | 1017.9 |
| 20260507081508 | 57 | 350 | 0.0 | 0.0 | 0.00 | 0.00 | 0.00 | 90 | 1017.9 |
| 20260507080009 | 58 | 350 | 0.0 | 0.0 | 0.00 | 0.00 | 0.00 | 91 | 1018.0 |
| 20260507074512 | 58 | 350 | 0.0 | 0.0 | 0.00 | 0.00 | 0.00 | 90 | 1018.0 |
| 20260507073006 | 58 | 350 | 0.0 | 0.0 | 0.00 | 0.00 | 0.00 | 89 | 1017.9 |
| 20260507071510 | 58 | 350 | 0.0 | 0.0 | 0.00 | 0.00 | 0.00 | 90 | 1017.9 |
| 20260507070013 | 58 | 350 | 0.0 | 0.0 | 0.00 | 0.00 | 0.00 | 89 | 1018.0 |
| 20260507064514 | 58 | 350 | 0.0 | 0.0 | 0.00 | 0.00 | 0.00 | 89 | 1018.2 |
| 20260507063011 | 59 | 350 | 0.0 | 0.0 | 0.00 | 0.00 | 0.00 | 89 | 1018.2 |
| 20260507061527 | 59 | 350 | 0.0 | 0.0 | 0.00 | 0.00 | 0.00 | 88 | 1018.2 |
| 20260507060025 | 59 | 350 | 0.0 | 0.0 | 0.00 | 0.00 | 0.00 | 87 | 1018.3 |
| 20260507054517 | 59 | 350 | 0.0 | 0.0 | 0.00 | 0.00 | 0.00 | 87 | 1018.3 |
| 20260507053016 | 59 | 350 | 0.0 | 0.0 | 0.00 | 0.00 | 0.00 | 86 | 1018.3 |
| 20260507051517 | 60 | 350 | 0.0 | 0.0 | 0.00 | 0.00 | 0.00 | 85 | 1018.3 |
| 20260507050028 | 60 | 350 | 0.0 | 0.0 | 0.00 | 0.00 | 0.00 | 84 | 1018.3 |
| 20260507044534 | 60 | 350 | 0.0 | 1.7 | 0.00 | 0.00 | 0.00 | 84 | 1018.2 |
| 20260507043018 | 61 | 331 | 0.0 | 1.7 | 0.00 | 0.00 | 0.00 | 83 | 1018.0 |
| 20260507041516 | 61 | 329 | 0.0 | 1.7 | 0.00 | 0.00 | 0.00 | 82 | 1017.9 |
| 20260507040022 | 61 | 279 | 0.0 | 1.7 | 0.00 | 0.00 | 0.00 | 82 | 1017.9 |
| 20260507034519 | 61 | 281 | 0.0 | 1.7 | 0.00 | 0.00 | 0.00 | 81 | 1017.7 |
| 20260507033021 | 62 | 360 | 0.9 | 2.6 | 0.00 | 0.00 | 0.00 | 81 | 1017.6 |
| 20260507031518 | 62 | 352 | 1.7 | 6.1 | 0.00 | 0.00 | 0.00 | 80 | 1017.5 |
| 20260507030020 | 62 | 268 | 1.7 | 3.5 | 0.00 | 0.00 | 0.00 | 80 | 1017.4 |
| 20260507024520 | 63 | 246 | 1.7 | 5.2 | 0.00 | 0.00 | 0.00 | 80 | 1017.3 |
| 20260507023020 | 63 | 232 | 2.6 | 6.1 | 0.00 | 0.00 | 0.00 | 79 | 1017.2 |
| 20260507021521 | 65 | 13 | 0.9 | 7.8 | 0.00 | 0.00 | 0.00 | 77 | 1017.3 |
| 20260507020018 | 66 | 352 | 2.6 | 7.8 | 0.00 | 0.00 | 0.00 | 74 | 1017.2 |
| 20260507014526 | 67 | 9 | 2.6 | 6.1 | 0.00 | 0.00 | 0.00 | 72 | 1017.2 |
| 20260507013016 | 67 | 288 | 2.6 | 6.1 | 0.00 | 0.00 | 0.00 | 70 | 1017.1 |
| 20260507011528 | 68 | 284 | 2.6 | 11.3 | 0.00 | 0.00 | 0.00 | 69 | 1017.1 |
| 20260507010003 | 68 | 81 | 2.6 | 7.0 | 0.00 | 0.00 | 0.00 | 67 | 1017.1 |
| 20260507004511 | 69 | 262 | 3.5 | 9.6 | 0.00 | 0.00 | 0.00 | 64 | 1017.0 |
| 20260507003016 | 70 | 17 | 3.5 | 8.7 | 0.00 | 0.00 | 0.00 | 62 | 1017.0 |
| 20260507001521 | 69 | 331 | 3.5 | 9.6 | 0.00 | 0.00 | 0.00 | 63 | 1016.8 |
| 20260507000005 | 69 | 250 | 3.5 | 11.3 | 0.00 | 0.00 | 0.00 | 63 | 1016.7 |
| 20260506234508 | 70 | 352 | 2.6 | 10.4 | 0.00 | 0.00 | 0.00 | 65 | 1016.6 |
| 20260506233012 | 69 | 300 | 1.7 | 12.2 | 0.00 | 0.00 | 0.00 | 65 | 1016.5 |
| 20260506231518 | 70 | 331 | 3.5 | 11.3 | 0.00 | 0.00 | 0.00 | 64 | 1016.8 |
| 20260506230020 | 70 | 35 | 2.6 | 9.6 | 0.00 | 0.00 | 0.00 | 64 | 1016.7 |
| 20260506224511 | 70 | 261 | 4.3 | 10.4 | 0.00 | 0.00 | 0.00 | 62 | 1016.8 |
| 20260506223012 | 70 | 10 | 3.5 | 10.4 | 0.00 | 0.00 | 0.00 | 63 | 1017.0 |
| 20260506221520 | 69 | 40 | 3.5 | 11.3 | 0.00 | 0.00 | 0.00 | 63 | 1017.2 |
| 20260506220030 | 70 | 277 | 4.3 | 13.0 | 0.00 | 0.00 | 0.00 | 61 | 1017.3 |
| 20260506214527 | 70 | 266 | 4.3 | 11.3 | 0.00 | 0.00 | 0.00 | 60 | 1017.5 |
| 20260506213015 | 70 | 221 | 6.1 | 12.2 | 0.00 | 0.00 | 0.00 | 60 | 1017.4 |
| 20260506211516 | 70 | 259 | 5.2 | 13.0 | 0.00 | 0.00 | 0.00 | 61 | 1017.4 |
| 20260506210021 | 70 | 292 | 3.5 | 10.4 | 0.00 | 0.00 | 0.00 | 61 | 1017.5 |
| 20260506204526 | 69 | 19 | 3.5 | 11.3 | 0.00 | 0.00 | 0.00 | 62 | 1017.6 |
| 20260506203026 | 70 | 239 | 3.5 | 10.4 | 0.00 | 0.00 | 0.00 | 61 | 1017.7 |
| 20260506201519 | 70 | 360 | 7.0 | 11.3 | 0.00 | 0.00 | 0.00 | 60 | 1017.8 |
| 20260506200025 | 70 | 332 | 6.1 | 11.3 | 0.00 | 0.00 | 0.00 | 61 | 1017.8 |
| 20260506194523 | 69 | 318 | 4.3 | 10.4 | 0.00 | 0.00 | 0.00 | 62 | 1017.8 |
| 20260506193030 | 68 | 238 | 3.5 | 11.3 | 0.00 | 0.00 | 0.00 | 62 | 1018.0 |
| 20260506191528 | 68 | 260 | 3.5 | 10.4 | 0.00 | 0.00 | 0.00 | 62 | 1018.0 |
| 20260506190019 | 68 | 35 | 1.7 | 7.8 | 0.00 | 0.00 | 0.00 | 63 | 1018.1 |
| 20260506184527 | 67 | 34 | 2.6 | 9.6 | 0.00 | 0.00 | 0.00 | 64 | 1018.2 |
| 20260506183026 | 67 | 330 | 3.5 | 9.6 | 0.00 | 0.00 | 0.00 | 64 | 1018.2 |
| 20260506181526 | 67 | 227 | 5.2 | 9.6 | 0.00 | 0.00 | 0.00 | 62 | 1018.3 |
| 20260506180028 | 68 | 279 | 4.3 | 9.6 | 0.00 | 0.00 | 0.00 | 62 | 1018.4 |
| 20260506174520 | 68 | 299 | 4.3 | 9.6 | 0.00 | 0.00 | 0.00 | 62 | 1018.5 |
| 20260506173005 | 67 | 24 | 2.6 | 8.7 | 0.00 | 0.00 | 0.00 | 64 | 1018.6 |
| 20260506171539 | 67 | 159 | 1.7 | 7.0 | 0.00 | 0.00 | 0.00 | 64 | 1018.9 |
| 20260506170017 | 66 | 240 | 3.5 | 7.0 | 0.00 | 0.00 | 0.00 | 64 | 1018.9 |
| 20260506164524 | 65 | 240 | 2.6 | 7.0 | 0.00 | 0.00 | 0.00 | 66 | 1018.8 |
| 20260506163038 | 65 | 314 | 0.9 | 5.2 | 0.00 | 0.00 | 0.00 | 67 | 1018.9 |
| 20260506161510 | 64 | 287 | 0.9 | 4.3 | 0.00 | 0.00 | 0.00 | 69 | 1018.8 |
| 20260506160015 | 63 | 284 | 1.7 | 3.5 | 0.00 | 0.00 | 0.00 | 69 | 1018.9 |
| 20260506154527 | 62 | 279 | 0.0 | 1.7 | 0.00 | 0.00 | 0.00 | 71 | 1018.8 |
| 20260506153021 | 61 | 340 | 0.0 | 0.9 | 0.00 | 0.00 | 0.00 | 74 | 1018.9 |